Flag for Poland Weather past 2 weeks in Legnica, Poland

Now
36 °F

Passing clouds.


Feels Like: 36 °F
Forecast: 38 / 56 °F
Wind: 2 mph from Northwest

Location: Wroclaw Ii

Current Time: Apr 19, 2015 at 3:49:42 AM

Latest Report: Apr 19, 2015 at 3:00 AM


Visibility: 31 mi

Pressure: 30.20 "Hg

Humidity: 80%

Dew point: 31 °F

Location of LegnicaLocation

Historic Weather in Legnica — Graph

°F

Legnica temperature yesterday

Maximum temperature yesterday: 48 °F (at 4:00 PM)
Minimum temperature yesterday: 37 °F (at 7:00 AM)
Average temperature yesterday: 43 °F

Past Weeks' High & Low Weather Summary

 TemperatureHumidityPressure
High71 °F (Apr 11, 3:00 PM)94% (Apr 11, 7:00 AM)30.55 "Hg (Apr 11, 7:00 AM)
Low30 °F (Apr 5, 6:00 AM)28% (Apr 12, 5:00 PM)29.84 "Hg (Apr 16, 6:00 AM)
Average48 °F64%30.19 "Hg
* Reported Apr 4 2:00 AM — Apr 19 2:00 AM, Legnica, Weather by CustomWeather, © 2015

Note: Actual official high and low records may vary slightly from our data, if they occured in-between our weather recording intervals... More about our weather records

Advertising

Legnica weather history for previous 24 hours

 ConditionsComfort  
Time TempWeatherWind HumidityBarometerVisibility
2:00 AM
Sun, Apr 19
38 °FPassing clouds.2 mph79%30.21 "Hg25 mi
1:00 AM40 °FPassing clouds.2 mph76%30.22 "Hg25 mi
12:00 AM41 °FOvercast.2 mph74%30.22 "Hg25 mi
11:00 PM
Sat, Apr 18
41 °FPassing clouds.25 mph74%30.22 "Hg11 mi
10:00 PM41 °FPassing clouds.25 mph68%30.21 "Hg1 mi
9:00 PM45 °FOvercast.3 mph60%30.20 "Hg31 mi
8:00 PM45 °FOvercast.3 mph60%30.19 "Hg31 mi
7:00 PM46 °FOvercast.5 mph56%30.19 "Hg31 mi
6:00 PM47 °FOvercast.3 mph62%30.18 "Hg31 mi
5:00 PM47 °FOvercast.6 mph56%30.19 "Hg31 mi
4:00 PM48 °FOvercast.5 mph53%30.19 "Hg31 mi
3:00 PM45 °FPartly sunny.3 mph64%30.21 "Hg25 mi
2:00 PM46 °FOvercast.6 mph52%30.20 "Hg25 mi
1:00 PM45 °FOvercast.6 mph53%30.20 "Hg25 mi
11:00 AM43 °FOvercast.3 mph61%30.21 "Hg25 mi
10:00 AM40 °FOvercast.5 mph71%30.19 "Hg25 mi
9:00 AM39 °FOvercast.5 mph77%30.18 "Hg25 mi
8:00 AM38 °FScattered clouds.3 mph80%30.17 "Hg25 mi
7:00 AM37 °FScattered clouds.3 mph79%30.16 "Hg31 mi
6:00 AM38 °FPartly sunny.3 mph78%30.13 "Hg31 mi
4:00 AM40 °FPassing clouds.2 mph84%30.09 "Hg25 mi
3:00 AM43 °FSprinkles. Overcast.5 mph69%30.06 "Hg25 mi
Weather by CustomWeather, © 2015

See weather overviewHow to use our weather pages